Powrót do katalogu

STARLINK-30706

AktywnyŁącznośćVLEO
NORAD 57947·PAYLOAD·🇺🇸 United States

Wystrzelony Sep 25, 2023 z Vandenberg Space Force Base

Loading…

Następne Przeloty (najbliższe 24 godziny)

TLE

ŚwieżeSource: CelesTrak SupGP

Epoka: Sep 14, 2026, 22:29 UTC

1 57947C 23148N   26257.93729167  .00013332  00000+0  39377-3 0  2576
2 57947  53.1587 221.4375 0001662  93.3142 158.9432 15.34393556    11

Śledź STARLINK-30706 w czasie rzeczywistym z AllMySat

Download on the App Store